Regional Weather Roundup
Issued by NWS

Home | Current Version | Previous Version | Graphics & Text | Print | Product List | Glossary On
Versions: 1 2 3 4 5 6 7 8 9 10 11 12 13 14 15 16 17 18 19 20 21 22 23 24 25 26 27 28 29 30 31 32 33 34 35 36 37 38 39 40 41 42 43 44 45 46 47 48 49 50
623
ASUS43 KOAX 280910
RWRNE

WEATHER ROUNDUP FOR NEBRASKA
NATIONAL WEATHER SERVICE OMAHA NE
400 AM CDT SAT MAY 28 2016

NOTES: SATELLITE DATA IS BEING USED TO AUGMENT CLOUD COVER ABOVE
       12000 FEET.
       "FAIR" INDICATES FEW OR NO CLOUDS BELOW 12,000 FEET WITH NO
       SIGNIFICANT WEATHER AND/OR OBSTRUCTIONS TO VISIBILITY.

  * THESE STATIONS DO NOT REPORT WEATHER SUCH AS RAIN...SNOW OR FOG.

NEZ001>004-019>022-054>056-281000-
NEBRASKA PANHANDLE

CITY           SKY/WX    TMP DP  RH WIND       PRES   REMARKS
SCOTTSBLUFF    PTCLDY    40  38  93 NE5       29.91R
ALLIANCE       CLEAR     41  40  96 NW5       29.88S
CHADRON        CLEAR     41  39  93 SW7       29.88R
KIMBALL        CLEAR     38  37  99 W7        29.94S WCI  32
SIDNEY         CLEAR     42  40  92 NW7       29.91S
$$

NEZ057>060-069>072-079>082-281000-
SOUTHWEST NEBRASKA

CITY           SKY/WX    TMP DP  RH WIND       PRES   REMARKS
NORTH PLATTE   CLOUDY    54  52  93 CALM      29.84R
IMPERIAL       CLEAR     50  46  86 NW9       29.86S
LEXINGTON      CLOUDY    55  53  93 NW5       29.81S
MCCOOK         CLOUDY    55  53  93 N5        29.82S
OGALLALA       CLEAR     49  46  90 NW8       29.86S
$$

NEZ005>010-023>029-035>040-094-281000-
NORTH CENTRAL NEBRASKA

CITY           SKY/WX    TMP DP  RH WIND       PRES   REMARKS
VALENTINE      PTCLDY    52  49  89 W7        29.82S
AINSWORTH      MOCLDY    55  52  89 NW5       29.81S
BROKEN BOW     LGT RAIN  56  54  93 W7        29.80S
O`NEILL        RAIN      58  56  94 W6        29.78S
ORD            LGT RAIN  56  54  93 S6        29.76F
THEDFORD       CLOUDY    53  50  90 W3        29.84R
$$

NEZ041-046>049-061>064-073>077-083>087-281000-
SOUTH CENTRAL NEBRASKA

CITY           SKY/WX    TMP DP  RH WIND       PRES   REMARKS
GRAND ISLAND   PTCLDY    57  55  93 W7        29.77F
AURORA         CLOUDY    57  56  95 W8        29.76F
HASTINGS       CLOUDY    56  54  93 NW3       29.77S
HEBRON         CLOUDY    57  56  97 CALM      29.76R
HOLDREGE       DRIZZLE   56  54  93 N5        29.77F
KEARNEY *      CLOUDY    55  54  94 N7        29.78F
YORK           CLOUDY    57  55  94 W12       29.75S
$$

NEZ011>018-030>034-042>045-281000-
NORTHEAST NEBRASKA

CITY           SKY/WX    TMP DP  RH WIND       PRES   REMARKS
NORFOLK        CLOUDY    59  55  87 NE8       29.70R
ALBION         RAIN      57  55  92 W9        29.73S
BLAIR          CLOUDY    61  60  96 SE8       29.71R
FREMONT        CLOUDY    59  58  97 S8        29.72R
TEKAMAH        MOCLDY    61  59  93 S8        29.70R
WAYNE          CLOUDY    61  59  94 E6        29.69R
$$

NEZ050>053-065>068-078-088>093-281000-
SOUTHEAST NEBRASKA

CITY           SKY/WX    TMP DP  RH WIND       PRES   REMARKS
LINCOLN        CLOUDY    60  57  89 W7        29.74R
OMAHA EPPLEY   CLOUDY    62  59  90 SE8       29.71R
BEATRICE       CLOUDY    57  56  97 NW5       29.74R
FALLS CITY     MOCLDY    59  57  93 S5        29.73R
NEBRASKA CITY  MOCLDY    58  58 100 S3        29.73R
PLATTSMOUTH    MOCLDY    62  61  98 SE3       29.72R
$$

NEZ044-045-051>053-067-281000-
OMAHA AREA

CITY           SKY/WX    TMP DP  RH WIND       PRES   REMARKS
OMAHA EPPLEY   CLOUDY    62  59  90 SE8       29.71R
BLAIR          CLOUDY    61  60  96 SE8       29.71R
FREMONT        CLOUDY    59  58  97 S8        29.72R
MILLARD        CLOUDY    62  60  93 SE5       29.71R
OFFUTT AFB     CLOUDY    61  61  99 SE7       29.70S
PLATTSMOUTH    MOCLDY    62  61  98 SE3       29.72R
WAHOO          CLOUDY    59  57  92 SW7       29.73R
$$




USA.gov is the U.S. government's official web portal to all federal, state and local government web resources and services.